[[{"header":{"parameterUnit":"m.s-1","parameterCategory":1,"la1":30.2991,"la2":30.254,"lo1":-89.0895,"lo2":-89.0444,"dy":0.0017,"dx":0.0017,"nx":28,"ny":28,"refTime":"2024-10-05T03:00:00:Z","depth":0,"parameterNumber":2,"parameterNumberName":"U-component_of_WINDS"},"data":[0,0,0,0,0,0,0,0,0,0,0,0,0,0,0,0,0,0,0,0,0,0,0,0,0,0,0,0,0,0,0,0,0,0,0,0,0,0,0,0,0,0,0,0,0,0,0,0,0,0,0,0,0,0,0,0,0,0,-6.3731,-6.3733,0,-6.3895,-6.3897,-6.3898,-6.3797,-6.3792,-6.3787,-6.3782,-6.3947,-6.3956,-6.3965,0,0,0,0,0,0,0,0,0,0,0,0,0,-6.3328,-6.3336,-6.3731,-6.3733,-6.3735,-6.3894,-6.3897,-6.3899,-6.3797,-6.3792,-6.3786,-6.378,-6.3944,-6.3955,-6.3965,0,0,0,0,0,0,0,0,0,0,0,0,0,-6.3499,-6.3339,-6.3731,-6.3704,-6.3703,-6.3894,-6.3897,-6.3899,-6.3799,-6.3791,-6.3784,-6.3778,-6.3941,-6.3954,-6.3967,-6.4193,0,0,-6.4007,-6.4013,0,0,0,0,0,0,0,0,-6.3489,-6.3514,-6.3706,-6.3706,-6.3705,-6.3818,-6.3815,-6.3998,-6.38,-6.3762,-6.3782,-6.3774,-6.391,-6.3925,-6.3972,-6.42,-6.4207,-6.4009,-6.4017,-6.4022,-6.4026,0,0,0,0,0,0,0,-6.3478,-6.3506,-6.3796,-6.3709,-6.3709,-6.3683,-6.3699,-6.3849,-6.3874,-6.3765,-6.3758,-6.3779,-6.3908,-6.3959,-6.3975,-6.421,-6.4008,-6.402,-6.4028,-6.4033,-6.4633,-6.464,0,0,0,0,0,0,-6.3468,-6.3497,-6.379,-6.38,-6.3578,-6.3696,-6.3714,-6.3789,-6.3872,-6.3878,-6.3785,-6.3774,-6.394,-6.3959,-6.398,-6.4251,-6.4022,-6.4035,-6.4042,-6.4625,-6.4635,-6.4643,0,0,0,0,0,0,-6.346,-6.3495,-6.3784,-6.3647,-6.3682,-6.371,-6.3796,-6.3796,-6.3847,-6.3887,-6.3891,-6.3832,-6.3935,-6.3961,-6.4141,-6.4255,-6.4041,-6.4053,-6.4616,-6.4628,-6.4639,-6.4794,0,0,0,0,0,0,-6.3449,-6.3493,-6.358,-6.365,-6.3689,-6.3943,-6.3803,-6.3804,-6.387,-6.3857,-6.3933,-6.3938,-6.3931,-6.4122,-6.4154,-6.427,-6.4063,-6.4605,-6.4621,-6.4635,-6.4779,-6.481,-6.4836,0,0,0,0,0,-6.3435,-6.3616,-6.3585,-6.3621,-6.3799,-6.395,-6.3972,-6.3961,-6.388,-6.3967,-6.3993,-6.3936,-6.4237,-6.4141,-6.4177,-6.4298,-6.4598,-6.4617,-6.4634,-6.4766,-6.4804,-6.4835,0,0,0,0,0,0,-6.3557,-6.3624,-6.3591,-6.38,-6.387,-6.3932,-6.4042,-6.4002,-6.4096,-6.4079,-6.406,-6.4079,-6.4267,-6.4299,-6.4191,-6.4521,-6.4405,-6.4431,-6.4493,-6.4529,-6.4557,-6.4546,-6.4074,0,0,0,0,0,-6.3609,-6.3727,-6.3779,-6.3958,-6.3996,-6.4013,-6.4079,-6.4064,-6.4136,-6.4165,-6.4204,-6.4275,-6.4385,-6.4459,-6.4563,-6.4783,-6.4798,-6.4883,-6.4912,-6.4935,-6.4958,-6.5078,-6.5117,-6.4702,-6.4702,-6.4702,0,0,-6.3716,-6.3767,-6.3843,-6.3984,-6.4037,-6.416,-6.4039,-6.4173,-6.4264,-6.4185,-6.4357,-6.4389,-6.4467,-6.4668,-6.4758,-6.4701,-6.5076,-6.4958,-6.4977,-6.4987,-6.5101,-6.514,-6.5175,-6.4714,-6.4712,-6.471,0,0,-6.3974,-6.4025,-6.418,-6.4236,-6.4318,-6.4329,-6.4367,-6.4436,-6.4454,-6.4627,-6.4571,-6.4678,-6.4868,-6.4927,-6.4982,-6.5264,-6.5215,-6.5298,-6.5448,-6.5565,-6.5598,-6.5627,-6.5728,-6.5765,-6.532,-6.532,-6.5321,0,-6.4096,-6.428,-6.4265,-6.4405,-6.4469,-6.4405,-6.4562,-6.4616,-6.4728,-6.4774,-6.4708,-6.4947,-6.4995,-6.521,-6.5279,-6.5325,-6.5367,-6.5289,-6.5594,-6.5623,-6.565,-6.5747,-6.5785,-6.533,-6.5329,-6.5328,-6.5327,0,-6.4427,-6.4555,-6.4671,-6.4782,-6.4859,-6.5007,-6.5014,-6.5094,-6.5073,-6.5091,-6.5268,-6.5323,-6.5438,-6.5487,-6.5468,-6.57,-6.5662,-6.5596,-6.5479,-6.57,-6.579,-6.5827,-6.5344,-6.534,-6.5338,-6.5335,0,0,-6.4767,-6.4869,-6.4912,-6.4962,-6.5048,-6.5147,-6.5292,-6.5405,-6.5474,-6.5553,-6.5674,-6.5838,-6.5778,-6.584,-6.5826,-6.5929,-6.615,-6.585,-6.5852,-6.5905,-6.6411,-6.6461,-6.6504,-6.6118,-6.6125,-6.6131,-6.6405,0,-6.5031,-6.5286,-6.5277,-6.5514,-6.5633,-6.5574,-6.57,-6.5766,-6.5787,-6.5889,-6.5911,-6.6028,-6.5939,-6.5976,-6.6075,-6.6102,-6.6252,-6.6082,-6.6231,-6.6237,-6.6215,-6.6551,-6.6604,-6.686,-6.644,-6.6446,-6.645,0,-6.5373,-6.5466,-6.5716,-6.5786,-6.5835,-6.5949,-6.6053,-6.6152,-6.6226,-6.6233,-6.6304,-6.6274,-6.6421,-6.63,-6.6502,-6.6387,-6.6447,-6.6469,-6.6479,-6.6493,-6.6358,-6.6576,-6.6942,-6.6981,-6.6506,-6.6501,-6.6497,0,-6.5598,-6.5784,-6.5958,-6.6003,-6.6089,-6.617,-6.621,-6.6277,-6.6346,-6.6436,-6.6481,-6.6587,-6.6645,-6.6728,-6.6727,-6.6639,-6.6932,-6.681,-6.6943,-6.6943,-6.7008,-6.7004,-6.739,-6.7045,-6.7045,-6.7044,-6.7043,0,-6.5894,-6.6049,-6.6061,-6.6168,-6.634,-6.6328,-6.6499,-6.653,-6.659,-6.6702,-6.6656,-6.6762,-6.6754,-6.6861,-6.6861,-6.7029,-6.7055,-6.7066,-6.7064,-6.7071,-6.707,-6.7111,-6.7093,-6.7054,-6.7052,-6.705,-6.7048,0,-6.6174,-6.6188,-6.6373,-6.644,-6.6461,-6.6585,-6.6641,-6.6743,-6.6759,-6.6901,-6.6934,-6.696,-6.7083,-6.7091,-6.7233,-6.7233,-6.7438,-6.7416,-6.7413,-6.741,-6.7542,-6.753,-6.7969,-6.8026,-6.7643,-6.7647,-6.765,0,-6.6363,-6.6481,-6.6561,-6.6634,-6.6679,-6.6795,-6.6866,-6.6859,-6.6935,-6.7029,-6.7119,-6.7239,-6.7334,-6.7534,-6.7565,-6.7674,-6.7655,-6.7801,-6.7671,-6.7674,-6.7659,-6.7652,-6.7664,-6.7827,-6.7831,-6.7834,-6.7837,0,-6.6697,-6.6699,-6.6803,-6.6911,-6.6998,-6.7082,-6.716,-6.7221,-6.7224,-6.7311,-6.7438,-6.7512,-6.7658,-6.7777,-6.7884,-6.7923,-6.7882,-6.7878,-6.7914,-6.7923,-6.7917,-6.7923,-6.7484,-6.7868,-6.7865,-6.7863,-6.7861,-6.786,-6.6938,-6.7041,-6.7114,-6.7233,-6.7291,-6.7366,-6.7465,-6.7495,-6.7601,-6.772,-6.7709,-6.785,-6.7921,-6.806,-6.8108,-6.8218,-6.8168,-6.8221,-6.8234,-6.8248,-6.8262,-6.7899,-6.8237,-6.8236,-6.8235,-6.8234,-6.8234,0,-6.7271,-6.7315,-6.7424,-6.7537,-6.763,-6.7584,-6.7668,-6.7749,-6.7874,-6.7945,-6.804,-6.8186,-6.8302,-6.8343,-6.8455,-6.8535,-6.8519,-6.8565,-6.856,-6.857,-6.83,-6.8258,-6.8577,-6.8576,-6.8576,-6.8576,-6.8576,-6.8576,-6.7455,-6.7628,-6.7638,-6.7839,-6.7882,-6.802,-6.8073,-6.8142,-6.8198,-6.8364,-6.8461,-6.8487,-6.8546,-6.8663,-6.8767,-6.8776,-6.882,-6.8875,-6.8876,-6.8623,-6.8588,-6.8556,-6.8516,-6.8884,-6.8884,-6.9136,-6.9139,-6.9141]},{"header":{"parameterUnit":"m.s-1","parameterCategory":1,"la1":30.2991,"la2":30.254,"lo1":-89.0895,"lo2":-89.0444,"dy":0.0017,"dx":0.0017,"nx":28,"ny":28,"refTime":"2024-10-05T03:00:00:Z","depth":0,"parameterNumber":3,"parameterNumberName":"V-component_of_WINDS"},"data":[0,0,0,0,0,0,0,0,0,0,0,0,0,0,0,0,0,0,0,0,0,0,0,0,0,0,0,0,0,0,0,0,0,0,0,0,0,0,0,0,0,0,0,0,0,0,0,0,0,0,0,0,0,0,0,0,0,0,-2.6257,-2.6258,0,-2.6335,-2.6336,-2.6337,-2.6318,-2.6316,-2.6315,-2.6313,-2.6396,-2.64,-2.6403,0,0,0,0,0,0,0,0,0,0,0,0,0,-2.6094,-2.6097,-2.6257,-2.6258,-2.6259,-2.6335,-2.6336,-2.6337,-2.6318,-2.6316,-2.6314,-2.6312,-2.6395,-2.6399,-2.6403,0,0,0,0,0,0,0,0,0,0,0,0,0,-2.6168,-2.6098,-2.6257,-2.6258,-2.6259,-2.6335,-2.6336,-2.6337,-2.6318,-2.6316,-2.6314,-2.6312,-2.6393,-2.6399,-2.6404,-2.6483,0,0,-2.6421,-2.6423,0,0,0,0,0,0,0,0,-2.6164,-2.6174,-2.6257,-2.6258,-2.626,-2.6314,-2.6309,-2.6386,-2.6319,-2.6296,-2.6313,-2.6311,-2.6371,-2.6378,-2.6398,-2.6487,-2.6491,-2.6421,-2.6424,-2.6427,-2.6428,0,0,0,0,0,0,0,-2.6159,-2.617,-2.6288,-2.6258,-2.626,-2.6256,-2.6264,-2.6323,-2.6345,-2.6298,-2.6297,-2.6306,-2.6371,-2.6393,-2.64,-2.6492,-2.6421,-2.6426,-2.6429,-2.6431,-2.6652,-2.6654,0,0,0,0,0,0,-2.6152,-2.6166,-2.6285,-2.629,-2.6205,-2.6261,-2.627,-2.6299,-2.6345,-2.6349,-2.6308,-2.6305,-2.6384,-2.6393,-2.6402,-2.6499,-2.6427,-2.6432,-2.6435,-2.6649,-2.6653,-2.6655,0,0,0,0,0,0,-2.6149,-2.6163,-2.6282,-2.6228,-2.6243,-2.6266,-2.6299,-2.6302,-2.6323,-2.6352,-2.6356,-2.6326,-2.6383,-2.6395,-2.6463,-2.6502,-2.6434,-2.6439,-2.6646,-2.665,-2.6654,-2.6693,0,0,0,0,0,0,-2.6144,-2.6162,-2.6191,-2.6229,-2.6246,-2.6341,-2.6301,-2.6305,-2.6332,-2.6329,-2.637,-2.6375,-2.6382,-2.6455,-2.6469,-2.6508,-2.6443,-2.6643,-2.6648,-2.6653,-2.6689,-2.6698,-2.6706,0,0,0,0,0,-2.6138,-2.62,-2.6193,-2.6208,-2.6283,-2.6343,-2.6353,-2.636,-2.6335,-2.6366,-2.6385,-2.6373,-2.6495,-2.6463,-2.6478,-2.6519,-2.6641,-2.6647,-2.6652,-2.6685,-2.6696,-2.6706,0,0,0,0,0,0,-2.6167,-2.6205,-2.6198,-2.6273,-2.6305,-2.634,-2.6379,-2.6372,-2.6412,-2.6408,-2.6415,-2.6424,-2.6495,-2.6514,-2.6477,-2.6599,-2.6565,-2.6574,-2.6584,-2.6595,-2.6604,-2.6598,-2.6448,0,0,0,0,0,-2.6182,-2.6227,-2.6257,-2.6321,-2.6337,-2.6355,-2.6382,-2.6384,-2.6418,-2.6432,-2.6456,-2.649,-2.6536,-2.6567,-2.661,-2.6691,-2.67,-2.6727,-2.6736,-2.6742,-2.6751,-2.6796,-2.6809,-2.6675,-2.6675,-2.6674,0,0,-2.6214,-2.624,-2.6268,-2.6327,-2.6353,-2.64,-2.6367,-2.6418,-2.6454,-2.644,-2.6506,-2.6525,-2.6564,-2.6639,-2.6674,-2.6657,-2.679,-2.675,-2.6755,-2.676,-2.6803,-2.6816,-2.6827,-2.6679,-2.6678,-2.6677,0,0,-2.6296,-2.6319,-2.6375,-2.6401,-2.644,-2.6451,-2.6465,-2.6501,-2.6513,-2.6579,-2.657,-2.6613,-2.6692,-2.672,-2.6745,-2.6839,-2.683,-2.6853,-2.6899,-2.6943,-2.6953,-2.6963,-2.6998,-2.701,-2.6861,-2.6861,-2.6861,0,-2.6331,-2.6401,-2.6405,-2.6458,-2.6485,-2.6473,-2.6531,-2.6556,-2.6607,-2.6627,-2.6607,-2.6707,-2.6732,-2.6814,-2.6837,-2.6857,-2.6874,-2.6849,-2.6951,-2.6961,-2.697,-2.7003,-2.7016,-2.6863,-2.6863,-2.6863,-2.6863,0,-2.6442,-2.6491,-2.6532,-2.6581,-2.6612,-2.6667,-2.6681,-2.6712,-2.6712,-2.6726,-2.6795,-2.6825,-2.6875,-2.6894,-2.6895,-2.6978,-2.6966,-2.6949,-2.6915,-2.6985,-2.7017,-2.7029,-2.6867,-2.6866,-2.6865,-2.6865,0,0,-2.6545,-2.6596,-2.6611,-2.6634,-2.6675,-2.6714,-2.6768,-2.6817,-2.6844,-2.688,-2.6927,-2.6994,-2.6979,-2.7007,-2.7011,-2.7049,-2.7123,-2.7027,-2.7028,-2.7045,-2.7218,-2.7232,-2.7246,-2.7117,-2.7119,-2.7121,-2.7215,0,-2.6632,-2.6727,-2.6733,-2.682,-2.6866,-2.6856,-2.6904,-2.6935,-2.695,-2.6992,-2.7008,-2.7057,-2.7032,-2.7049,-2.7086,-2.7106,-2.7158,-2.7099,-2.7163,-2.7165,-2.7154,-2.7262,-2.7277,-2.7364,-2.7227,-2.7229,-2.7231,0,-2.6746,-2.6785,-2.6876,-2.6912,-2.6932,-2.6974,-2.702,-2.706,-2.7095,-2.7104,-2.7135,-2.7133,-2.7191,-2.7154,-2.7234,-2.7194,-2.722,-2.7234,-2.7237,-2.7245,-2.7203,-2.7274,-2.7391,-2.7405,-2.725,-2.7248,-2.7247,0,-2.6814,-2.6889,-2.6953,-2.6973,-2.7016,-2.7047,-2.7066,-2.71,-2.7129,-2.7169,-2.7188,-2.7234,-2.726,-2.7297,-2.7308,-2.728,-2.7389,-2.7352,-2.7398,-2.7398,-2.7423,-2.7421,-2.7548,-2.7437,-2.7437,-2.7437,-2.7437,0,-2.6911,-2.6968,-2.6984,-2.7024,-2.7088,-2.7094,-2.7158,-2.7175,-2.7205,-2.725,-2.7244,-2.7285,-2.7297,-2.7341,-2.7351,-2.7417,-2.7428,-2.7437,-2.7439,-2.7439,-2.7438,-2.7457,-2.7452,-2.744,-2.744,-2.7439,-2.7438,0,-2.6998,-2.7011,-2.7081,-2.7116,-2.7126,-2.7172,-2.7202,-2.7241,-2.7255,-2.7311,-2.7325,-2.7347,-2.7399,-2.7413,-2.7476,-2.7482,-2.756,-2.7556,-2.7548,-2.7548,-2.7594,-2.759,-2.7739,-2.7759,-2.7634,-2.7635,-2.7636,0,-2.706,-2.7103,-2.7142,-2.7171,-2.7192,-2.7238,-2.7268,-2.7276,-2.7307,-2.7352,-2.7386,-2.7437,-2.7478,-2.7562,-2.7584,-2.7633,-2.7631,-2.7679,-2.7638,-2.7636,-2.7633,-2.7631,-2.7636,-2.7687,-2.7689,-2.769,-2.7691,0,-2.7168,-2.7173,-2.7215,-2.726,-2.7295,-2.7331,-2.7366,-2.739,-2.7403,-2.7439,-2.7492,-2.7524,-2.7587,-2.7639,-2.7688,-2.7709,-2.7703,-2.7703,-2.7717,-2.7717,-2.7712,-2.7717,-2.7571,-2.77,-2.7699,-2.7699,-2.7698,-2.7698,-2.7246,-2.7284,-2.7318,-2.7366,-2.7392,-2.7425,-2.7464,-2.7482,-2.7526,-2.7578,-2.758,-2.7638,-2.7674,-2.7738,-2.7762,-2.7809,-2.7795,-2.7814,-2.7819,-2.7824,-2.7829,-2.7703,-2.7817,-2.7817,-2.7817,-2.7817,-2.7817,0,-2.7355,-2.7376,-2.742,-2.7469,-2.7507,-2.7496,-2.7534,-2.7567,-2.7617,-2.765,-2.7691,-2.7752,-2.7802,-2.7829,-2.7879,-2.7911,-2.7909,-2.7924,-2.7922,-2.7928,-2.7838,-2.7822,-2.7924,-2.7924,-2.7924,-2.7924,-2.7924,-2.7924,-2.7417,-2.7482,-2.749,-2.7569,-2.759,-2.7646,-2.7669,-2.7699,-2.7726,-2.7795,-2.7836,-2.7852,-2.7883,-2.7936,-2.7982,-2.7988,-2.8008,-2.8024,-2.8029,-2.7945,-2.7934,-2.7924,-2.7909,-2.8028,-2.8028,-2.8116,-2.8117,-2.8117]}]]